Location: ??????
(41.4460°N, 22.6094°E)
Time: 20:55:32
(UTC+00:00)

Daily predictions for brighter satellites

Satellite Brightness Start Highest point End
(mag) Time Altitude Azimuth Time Altitude Azimuth Time Altitude Azimuth
Cosmos 2369 4.0 15:56:34 10° SSW 16:02:13 76° WNW 16:07:55 10° NNE
Cosmos 1980 Rocket 2.3 15:58:46 10° SSW 16:04:25 87° ESE 16:10:09 10° NNE
Cosmos 2263 Rocket 2.7 15:59:46 10° N 16:04:55 37° ENE 16:10:03 10° SE
MOS 1-B 4.4 15:59:21 10° SSE 16:05:02 62° ENE 16:10:44 10° N
Cosmos 1356 4.1 16:02:07 10° NNW 16:05:27 59° W 16:08:47 10° S
Cosmos 1821 Rocket 4.1 16:00:03 10° S 16:06:19 62° E 16:12:36 10° NNE
Cosmos 389 Rocket 2.5 16:04:40 10° SSW 16:08:03 79° W 16:11:28 10° N
Cosmos 1758 4.2 16:04:42 10° SSW 16:08:36 55° W 16:12:31 10° N
USA 215 4.2 16:02:45 10° NE 16:08:51 43° NNW 16:14:58 10° W
Genesis I 4.4 16:05:08 10° NW 16:09:06 50° WSW 16:13:02 10° SSE
Cosmos 371 Rocket 4.2 16:07:20 10° SSE 16:11:25 28° E 16:15:32 10° NE
Meteor 1-21 Rocket 4.4 16:05:52 10° N 16:11:41 59° ENE 16:17:31 10° SSE
Cosmos 494 Rocket 4.4 16:09:24 10° NNW 16:14:34 69° WSW 16:19:41 10° S
SMAP 3.7 16:09:59 10° S 16:14:35 63° W 16:19:13 10° NNW
Cosmos 1953 2.3 16:10:39 10° S 16:14:39 65° E 16:18:41 10° NNE
SKYMED 2 3.9 16:10:39 10° NNE 16:14:49 43° E 16:18:56 10° S
CZ-2D R/B 3.2 16:14:26 10° SSE 16:18:14 70° ENE 16:22:06 10° N
Cosmos 1125 Rocket 4.3 16:13:59 10° SW 16:19:08 55° WNW 16:24:18 10° N
YAOGAN 1 3.9 16:17:05 10° ESE 16:20:10 20° ENE 16:23:16 10° NNE
Cosmos 1269 Rocket 4.4 16:15:43 10° N 16:20:45 43° ENE 16:25:45 10° SE
Cosmos 1455 Rocket 3.2 16:16:36 10° S 16:20:53 53° E 16:25:14 10° NNE
Cosmos 1697 Rocket 4.2 16:15:48 10° SW 16:21:00 37° WNW 16:26:14 10° N
Cosmos 1934 Rocket 4.3 16:17:19 10° SSE 16:23:01 43° E 16:28:41 10° NNE
SL-8 R/B 3.8 16:18:16 10° WSW 16:23:03 76° NNW 16:27:49 10° ENE
CZ-2C R/B 3.0 16:17:48 10° NNE 16:23:13 47° E 16:28:29 10° S
H-2A R/B 3.5 16:20:03 10° ESE 16:23:36 25° ENE 16:27:05 10° NNE
H-2A R/B 3.5 16:25:01 10° NE 16:27:38 16° E 16:30:16 10° SE
NOSS 3-1 (A) 4.3 16:25:16 10° SSE 16:29:04 21° ESE 16:32:40 12° ENE
CZ-4 R/B 2.5 16:27:11 10° ESE 16:30:20 23° ENE 16:33:32 10° NNE
ATLAS 3B R/B 4.1 16:24:42 10° WSW 16:30:32 33° NW 16:36:39 10° NNE
Okean O Rocket 1.6 16:30:06 10° SSE 16:34:22 62° ENE 16:38:41 10° N
Cosmos 1908 3.9 16:30:54 10° SSW 16:34:43 59° W 16:38:33 10° N
Cosmos 1544 Rocket 3.9 16:30:40 10° SSE 16:34:53 43° E 16:39:07 10° NNE
NOSS 8 (F) 4.5 16:31:33 10° SSW 16:35:13 54° ESE 16:37:47 14° NE
Tiangong 1.2 16:32:30 10° WSW 16:35:41 66° SSE 16:37:44 20° E
Cosmos 1844 Rocket 4.2 16:34:46 10° N 16:38:18 17° NE 16:39:58 15° ENE
USA 267 3.6 16:35:26 10° SE 16:41:58 68° SW 16:48:30 10° NW
SL-08 RB Rocket 4.1 16:38:45 10° SE 16:42:59 40° ENE 16:47:15 10° N
OE (NEXTSAT) 4.4 16:40:39 10° SW 16:44:00 57° SSE 16:45:50 24° E
Cosmos 2278 4.3 16:38:27 10° SW 16:44:02 61° WNW 16:49:43 10° NNE
Cosmos 2123 Rocket 4.0 16:40:23 10° N 16:46:40 62° E 16:52:53 10° SSE
NOSS 2-3 (D) 3.7 16:45:40 10° SSW 16:49:30 46° ESE 16:52:36 17° NE
Meteor 1-4 Rocket 3.3 16:47:32 10° SSE 16:50:33 28° E 16:51:14 26° ENE
Okean-O 3.7 16:51:28 23° E 16:52:15 24° ENE 16:55:47 10° NNE
Feng Yun 1-1 Rocket 4.2 16:49:08 10° SSE 16:54:33 62° ENE 17:00:10 10° N
NOSS 3-1 (C) 3.1 16:49:40 10° SSW 16:54:43 65° ESE 17:00:35 10° NE
Okean 1-7 Rocket 3.5 16:50:57 10° N 16:55:22 68° E 16:59:47 10° SSE
IRAS Rocket 4.2 16:49:58 10° NNE 16:55:28 60° ESE 17:00:53 10° S
HJ-1C 4.1 16:58:02 30° ENE 16:58:02 30° ENE 17:00:34 10° N
SL-16 R/B 2.1 16:52:38 10° S 16:58:13 65° ESE 17:03:51 10° NNE
CZ-2C R/B 2.4 16:55:21 10° WSW 16:58:23 27° S 16:59:50 20° SE
Landsat 5 4.0 16:54:47 10° N 16:59:10 67° WNW 17:03:37 10° SSW
Cosmos 1602 Rocket 4.0 16:57:39 10° N 17:01:40 35° ENE 17:03:14 27° ESE
NOSS 2-3 (C) 3.3 16:58:09 10° SSW 17:02:06 68° ESE 17:05:07 19° NE
COSMO-SKYMED 1 3.3 16:58:39 10° N 17:02:54 55° WNW 17:07:08 10° SSW
Meteor 2-10 Rocket 3.8 17:00:16 10° SSE 17:05:40 49° E 17:10:53 10° NNE
ATLAS 5 CENTAUR R/B 3.4 17:05:43 10° W 17:08:58 25° NW 17:12:33 10° NNE
Cosmos 2344 4.5 17:01:55 10° NNW 17:10:47 51° NE 17:18:58 22° ESE
Cosmos 304 Rocket 3.7 17:06:43 10° S 17:11:25 61° ESE 17:16:09 10° NNE
Cosmos 1300 2.9 17:07:54 10° SSW 17:11:41 69° W 17:15:29 10° N
Cosmos 2322 Rocket 2.1 17:07:07 10° S 17:12:39 64° ESE 17:18:12 10° NNE
Cosmos 839 Rocket 4.3 17:07:26 10° NNW 17:14:53 56° NE 17:18:21 27° ESE
Delta 2 Rocket 4.2 17:16:37 10° SW 17:19:26 27° S 17:19:26 27° S
Lacrosse 4 Rocket 2.0 17:19:00 10° NNW 17:22:49 40° NE 17:22:49 40° NE
Cosmos 332 Rocket 3.7 17:18:58 10° SSW 17:23:51 82° ESE 17:28:46 10° NNE
Meteor 1-11 4.3 17:18:21 10° NNW 17:23:58 80° W 17:29:37 10° S
Cosmos 2360 Rocket 2.3 17:19:09 10° S 17:24:29 47° ESE 17:26:16 36° ENE
SWARM C 4.5 17:23:48 10° S 17:27:06 81° W 17:30:25 10° N
SWARM A 4.2 17:23:59 10° S 17:28:05 48° N 17:30:36 10° N
Cosmos 1758 Rocket 4.5 17:26:30 10° N 17:29:10 33° NNE 17:29:10 33° NNE
Cosmos 1605 Rocket 4.0 17:26:06 10° S 17:32:21 86° W 17:38:44 10° N
DMSP B5D2-2 4.0 17:28:03 10° NNE 17:33:20 86° ESE 17:38:33 10° SSW
H-2A R/B 4.1 17:29:00 10° SSW 17:33:37 29° W 17:38:20 10° NW
X-37B 1.8 17:31:28 10° WNW 17:33:45 38° NW 17:33:45 38° NW
Cosmos 614 Rocket 4.0 17:29:52 10° N 17:34:51 54° ENE 17:34:56 54° ENE
Cosmos 1626 Rocket 4.0 17:33:35 10° NNW 17:37:50 60° W 17:42:04 10° S
ARGOS 4.4 17:36:01 10° SSW 17:41:04 41° W 17:46:11 10° NNW
Cosmos 1447 Rocket 4.3 17:38:11 10° N 17:44:20 79° E 17:49:38 14° S
In-Cosmos 22 Rocket 3.9 17:39:27 10° N 17:44:48 81° E 17:46:38 42° SSE
Cosmos 1153 Rocket 4.4 17:41:34 10° S 17:47:55 80° E 17:54:22 10° N
Cosmos 2263 Rocket 3.9 17:43:53 10° NW 17:48:42 31° WSW 17:53:30 10° SSW
MetOp-A 4.0 17:47:07 46° SSE 17:48:46 82° ENE 17:54:09 10° NNW
CSL-04 Debris 4.0 17:49:52 58° SSE 17:50:57 80° ENE 17:56:23 10° NNW
YAOGAN 1 3.9 17:51:57 10° SSW 17:55:59 38° W 18:00:02 10° NNW
USA 229 DEB 3.5 17:50:21 10° SW 17:56:40 85° NW 17:59:47 34° NNE
USA 229 3.5 17:50:27 10° SW 17:56:46 86° NW 17:59:49 35° NNE
H-2A R/B 4.5 17:55:10 10° SSW 17:58:55 28° W 18:02:37 10° NW
H-2A R/B 3.2 17:59:53 10° N 18:03:46 40° WNW 18:07:40 10° SW
CZ-4 R/B 3.4 18:01:45 10° SSW 18:05:10 27° W 18:08:41 10° NW
CSL-04 Rocket 3.6 18:05:17 74° S 18:05:48 84° WSW 18:11:24 10° NNW
Tiangong 4.3 18:09:20 10° W 18:09:58 15° W 18:09:58 15° W
NOSS 3-1 (A) 3.7 18:14:04 10° SW 18:19:13 55° NW 18:20:10 49° NNW
Cosmos 2251 Rocket 4.0 18:15:28 10° NNW 18:20:00 57° WNW 18:20:00 57° WNW
Cosmos 1844 Rocket 3.1 18:17:18 10° NNW 18:21:39 55° NW 18:21:39 55° NW
Milstar 3 Cent rocket 4.4 18:18:59 10° SW 18:25:17 34° SSE 18:25:17 34° SSE
Okean-O 4.3 18:29:03 31° W 18:29:03 31° W 18:32:32 10° NNW
Cosmos 44 4.4 18:25:09 10° SW 18:29:37 47° W 18:29:37 47° W
SL-16 R/B 4.5 18:38:38 10° W 18:42:49 21° NW 18:47:02 10° N
Cosmos 2322 Rocket 4.4 18:53:03 10° W 18:57:11 21° NW 19:00:51 12° N
Cosmos 2360 Rocket 4.1 19:04:00 10° WSW 19:08:09 26° WNW 19:08:09 26° WNW
